CPA552 RCTP-ZSPD

Flight info

Callsign CPA552
Flight time N/A
Altitude 35000
Route PIANO1B PIANO L3 VIOLA R596 SULEM/K0904S1100 R596 DST/K0909S1070 B221 SHZ W58 BK BK81A
Aircraft A346/H-SDE2E3FGHIJ3J4J5M1RWXY/LB1D1

Departure

Time 2026-05-06 22:31
Airport Taiwan Taoyuan International Airport (RCTP)

Arrival

Time N/A
Airport Shanghai Pudong International Airport (ZSPD)
Time Latitude Longitude Altitude Speed Heading
2026-05-06 22:09 25.07543 121.23381 109 ft 0 kts 319°
2026-05-06 22:19 25.07540 121.23384 109 ft 3 kts 319°
2026-05-06 22:19 25.07520 121.23402 107 ft 4 kts 322°
2026-05-06 22:20 25.07498 121.23419 108 ft 4 kts 329°
2026-05-06 22:20 25.07474 121.23432 108 ft 4 kts 343°
2026-05-06 22:20 25.07452 121.23435 108 ft 4 kts 11°
2026-05-06 22:20 25.07439 121.23428 106 ft 2 kts 49°
2026-05-06 22:21 25.07438 121.23427 106 ft 0 kts 49°
2026-05-06 22:25 25.07439 121.23429 109 ft 1 kts 49°
2026-05-06 22:25 25.07456 121.23451 111 ft 6 kts 49°
2026-05-06 22:25 25.07492 121.23495 111 ft 10 kts 46°
2026-05-06 22:26 25.07548 121.23559 110 ft 13 kts 49°
2026-05-06 22:26 25.07615 121.23644 110 ft 16 kts 49°
2026-05-06 22:26 25.07696 121.23748 110 ft 19 kts 49°
2026-05-06 22:26 25.07789 121.23869 111 ft 22 kts 50°
2026-05-06 22:27 25.07891 121.24002 109 ft 24 kts 49°
2026-05-06 22:27 25.08005 121.24147 111 ft 25 kts 49°
2026-05-06 22:27 25.08113 121.24288 110 ft 18 kts 51°
2026-05-06 22:27 25.08097 121.24415 110 ft 19 kts 132°
2026-05-06 22:28 25.08069 121.24548 108 ft 19 kts 54°
2026-05-06 22:28 25.08159 121.24663 108 ft 21 kts 49°
2026-05-06 22:28 25.08261 121.24793 110 ft 23 kts 49°
2026-05-06 22:28 25.08371 121.24934 109 ft 25 kts 49°
2026-05-06 22:29 25.08427 121.25052 108 ft 18 kts 101°
2026-05-06 22:29 25.08345 121.25153 104 ft 19 kts 166°
2026-05-06 22:29 25.08240 121.25092 104 ft 3 kts 229°
2026-05-06 22:29 25.08236 121.25087 104 ft 4 kts 229°
2026-05-06 22:30 25.08075 121.24882 102 ft 68 kts 229°
2026-05-06 22:30 25.07612 121.24298 104 ft 132 kts 229°
2026-05-06 22:30 25.06881 121.23377 108 ft 183 kts 228°
2026-05-06 22:30 25.06006 121.22263 570 ft 198 kts 229°
2026-05-06 22:31 25.05101 121.21070 1225 ft 206 kts 230°
2026-05-06 22:31 25.04171 121.19826 2011 ft 209 kts 231°
2026-05-06 22:31 25.03269 121.18577 2883 ft 207 kts 232°
2026-05-06 22:31 25.02434 121.17277 3690 ft 210 kts 243°
2026-05-06 22:32 25.02206 121.15665 4240 ft 224 kts 279°
2026-05-06 22:32 25.02868 121.14044 4742 ft 245 kts 304°
2026-05-06 22:32 25.04121 121.12629 5098 ft 272 kts 322°
2026-05-06 22:32 25.05815 121.11534 5588 ft 291 kts 331°
2026-05-06 22:33 25.07564 121.10470 6523 ft 288 kts 327°
2026-05-06 22:33 25.09260 121.09351 7643 ft 280 kts 326°
2026-05-06 22:33 25.10917 121.08241 8638 ft 279 kts 325°
2026-05-06 22:33 25.12581 121.07126 9532 ft 281 kts 324°
2026-05-06 22:34 25.14260 121.06005 10338 ft 283 kts 324°
2026-05-06 22:34 25.15979 121.04861 10831 ft 296 kts 326°
2026-05-06 22:34 25.17983 121.04036 11104 ft 323 kts 346°
2026-05-06 22:34 25.20276 121.04068 11383 ft 349 kts
2026-05-06 22:35 25.22589 121.05139 11673 ft 375 kts 32°
2026-05-06 22:35 25.24470 121.07238 11985 ft 396 kts 50°
2026-05-06 22:35 25.26156 121.09725 12308 ft 411 kts 51°
2026-05-06 22:35 25.27878 121.12297 12830 ft 419 kts 51°
2026-05-06 22:36 25.29636 121.14893 13516 ft 423 kts 51°
2026-05-06 22:36 25.31423 121.17497 14111 ft 427 kts 51°